Location: Bailleul
(50.3375°N, 2.8513°E)
Time: 03:02:29
(UTC+00:00)

Cosmos 1980 - Pass Details

Date: 01 November 2021
Orbit: 839 x 847 km, 71.0° (Epoch: 01 December)

Event Time Altitude Azimuth Distance (km) Brightness Sun altitude
Rises 19:48:47 0° 223° (SW) 3,382 7.1 -32.8°
Reaches altitude 10° 19:51:17 10° 227° (SW) 2,452 6.4 -33.2°
Enters shadow 19:55:13 41° 255° (WSW) 1,195 4.7 -33.8°
